Kuchera_Ratio
0.0 0.0 0.0 0.0 0.0 0.0 0.0 0.0 0.0 0.0 0.0 0.0 0.0 0.0 0.0 0.0 0.0 0.0 0.0 0.0 0.0 0.0 0.0 0.0 0.0 0.0 0.0 0.0 0.0 0.0 0.0 0.0 0.0 0.0 0.0 0.0 0.0 0.0 0.0 0.0 0.0 0.0 0.0
0.0 0.0 0.0 0.0 0.0 0.0 0.0 0.0 0.0 0.0 0.0 0.0 0.0 0.0 0.0 0.0 0.0 0.0 0.0 0.0 0.0 0.0 0.0 0.0 0.0 0.0 0.0 0.0 0.0 0.0 0.0 0.0 0.0 0.0 0.0 0.0 0.0 0.0 0.0 0.0 0.0 0.0 0.0
0.0 0.0 0.0 0.0 0.0 0.0 0.0 0.0 0.0 0.0 0.0 0.0 0.0 0.0 0.0 0.0 0.0 0.0 0.0 0.0 0.0 0.0 0.0 0.0 0.0 0.0 0.0 0.0 0.0 0.0 0.0 0.0 0.0 0.0 0.0 0.0 0.0 0.0 0.0 0.0 0.0 0.0 0.0
0.0 0.0 0.0 0.0 0.0 0.0 0.0 0.0 0.0 0.0 0.0 0.0 0.0 0.0 0.0 0.0 0.0 0.0 0.0 0.0 0.0 0.0 0.0 0.0 0.0 0.0 0.0 0.0 0.0 0.0 0.0 0.0 0.7 1.2 0.1 1.1 1.8 4.4 1.6 0.0 0.0 0.0 0.0
0.0 0.0 0.0 0.0 0.0 0.0 0.0 0.0 0.0 0.0 0.0 0.0 0.0 0.0 0.0 0.0 0.0 0.0 0.0 0.0 0.0 0.0 0.0 0.0 0.0 0.0 0.0 0.0 0.0 0.0 0.0 0.7 1.2 1.4 2.7 3.0 3.6 4.8 6.8 3.9 1.7 1.3 0.0
0.0 0.0 0.0 0.0 0.0 0.0 0.0 0.0 0.0 0.0 0.0 0.0 0.0 0.0 0.0 0.0 0.0 0.0 0.0 0.0 0.0 0.0 0.0 0.0 0.0 0.0 0.0 0.0 0.0 0.0 0.9 2.3 2.4 2.0 3.6 4.0 5.1 6.3 8.0 8.0 7.8 6.3 3.5
0.0 0.0 0.0 0.0 0.0 0.0 0.0 0.0 0.0 0.0 0.0 0.0 0.0 0.0 0.0 0.0 0.0 0.0 0.0 0.0 0.0 0.0 0.0 0.0 0.0 0.0 0.0 0.0 0.0 0.4 2.0 3.0 3.4 3.9 3.8 4.1 5.3 4.9 6.5 9.1 10.3 9.8 6.0
0.0 0.0 0.0 0.0 0.0 0.0 0.0 0.0 0.0 0.0 0.0 0.0 0.0 0.0 0.0 0.0 0.0 0.0 0.0 0.0 0.0 0.0 0.0 0.0 0.0 0.0 0.0 0.1 0.4 1.5 2.6 3.2 3.2 4.9 5.6 4.7 5.1 5.1 5.9 8.2 11.3 11.4 9.9
0.0 0.0 0.0 0.0 0.0 0.0 0.0 0.0 0.0 0.0 0.0 0.0 0.0 0.0 0.0 0.0 0.0 0.0 0.0 0.0 0.0 0.0 0.0 0.0 0.0 0.0 0.3 0.6 1.3 2.8 4.0 4.1 4.0 4.2 5.0 6.3 5.3 5.3 5.6 6.5 8.1 12.7 12.6
0.0 0.0 0.0 0.0 0.0 0.0 0.0 0.0 0.0 0.0 0.0 0.0 0.0 0.0 0.0 0.0 0.0 0.0 0.0 0.0 0.0 0.0 0.0 0.0 0.1 0.8 1.3 1.6 2.5 3.9 5.0 5.8 5.1 5.0 6.3 6.6 5.9 6.0 5.7 6.2 6.9 8.6 13.0
0.0 0.0 0.0 0.0 0.0 0.0 0.0 0.0 0.0 0.0 0.0 0.0 0.0 0.0 0.0 0.0 0.0 0.0 0.0 0.0 0.0 0.0 0.0 0.0 0.6 1.5 2.2 2.7 3.6 5.2 5.7 6.8 6.8 6.3 7.3 7.4 6.2 6.6 6.1 6.1 6.9 8.9 9.1
0.0 0.0 0.0 0.0 0.0 0.0 0.0 0.0 0.0 0.0 0.0 0.0 0.0 0.0 0.0 0.0 0.0 0.0 0.0 0.0 0.0 0.0 0.0 0.9 2.0 2.7 3.2 3.8 4.8 6.2 5.7 7.5 8.3 7.7 7.9 7.8 6.2 6.5 6.0 6.6 8.0 8.0 6.4
0.0 0.0 0.0 0.0 0.0 0.0 0.0 0.0 0.0 0.0 0.0 0.0 0.0 0.0 0.0 0.0 0.0 0.0 0.0 0.0 0.0 0.0 1.6 1.9 2.4 3.6 4.1 5.0 6.2 7.0 7.5 8.3 8.4 8.0 8.4 7.8 7.6 8.0 6.4 6.9 8.0 6.9 5.8
0.0 0.0 0.0 0.0 0.0 0.0 0.0 0.0 0.0 0.0 0.0 0.0 0.0 0.0 0.0 0.0 0.0 0.0 0.0 0.0 0.0 0.2 2.1 2.9 3.9 4.1 5.1 6.5 7.4 7.5 8.3 8.3 7.7 7.3 6.8 6.7 7.1 7.3 7.4 7.5 7.5 7.0 7.4
0.0 0.0 0.0 0.0 0.0 0.0 0.0 0.0 0.0 0.0 0.0 0.0 0.0 0.0 0.0 0.0 0.0 0.0 0.0 0.1 1.5 2.6 3.6 4.4 5.0 4.9 6.7 7.1 7.4 6.8 7.0 7.1 7.1 6.2 5.9 5.0 4.9 3.5 1.9 2.9 4.3 5.7 6.8
0.0 0.0 0.0 0.0 0.0 0.0 0.0 0.0 0.0 0.0 0.0 0.0 0.0 0.0 0.0 0.1 0.0 0.0 0.8 2.3 3.2 4.0 4.9 5.9 5.9 6.6 7.1 5.0 3.2 3.2 6.1 5.5 5.5 6.7 4.7 4.7 4.7 4.4 3.0 1.7 1.5 1.8 6.4
0.0 0.0 0.0 0.0 0.0 0.0 0.0 0.0 0.0 0.0 0.0 0.0 0.0 0.3 1.2 1.1 1.3 1.5 2.4 3.4 4.2 5.1 6.3 6.6 7.1 8.0 9.0 5.4 3.6 1.8 3.7 5.3 5.7 5.7 5.9 5.6 4.4 4.4 5.2 4.6 3.3 2.9 1.7
0.0 0.0 0.0 0.0 0.0 0.0 0.0 0.2 1.0 0.9 0.1 0.0 0.4 1.5 2.0 2.3 2.8 3.4 4.0 5.1 6.3 7.2 7.2 8.0 8.7 9.5 9.4 5.2 3.8 2.7 4.8 5.6 5.7 5.7 6.0 6.6 6.5 5.7 4.8 3.9 6.2 4.1 3.0
1.2 0.0 0.0 0.0 0.0 0.2 1.1 1.7 1.3 1.2 1.4 1.0 0.6 1.8 3.9 3.4 4.1 5.0 6.0 7.7 8.7 9.1 9.0 10.1 10.5 10.8 10.3 6.6 4.8 3.9 6.1 6.1 6.2 5.7 5.4 5.9 5.2 3.6 1.2 3.9 7.0 6.6 6.1
1.9 1.0 0.0 0.0 0.0 0.9 1.7 1.6 2.3 3.1 3.2 3.7 3.8 4.6 4.2 3.8 4.6 6.0 7.6 9.2 10.8 10.5 9.4 10.7 10.6 9.7 10.9 7.8 5.4 3.4 5.7 7.8 7.5 6.2 5.6 5.0 4.4 2.1 1.2 4.9 7.5 11.6 9.5
4.4 1.4 1.2 0.0 0.2 1.1 1.5 2.2 3.9 4.4 5.2 5.8 6.1 6.1 6.4 6.0 7.0 8.0 9.7 11.4 11.5 11.2 12.0 11.3 11.9 11.3 10.7 10.2 5.0 3.2 5.3 6.7 7.9 7.8 7.6 6.2 4.6 3.5 3.5 3.8 7.9 9.1 5.2
8.0 4.0 2.6 2.7 3.3 3.4 2.8 2.1 2.9 4.7 6.3 6.3 6.8 7.5 8.2 9.5 10.0 10.7 11.8 12.1 12.7 13.7 13.5 13.1 12.6 11.1 10.3 7.3 6.3 3.3 2.7 2.5 7.4 8.9 7.6 7.0 5.2 5.4 5.5 6.6 6.0 5.8 6.5
12.4 9.8 7.0 5.5 5.2 5.6 4.4 4.6 5.1 5.9 5.9 6.5 7.3 8.5 10.0 11.2 11.9 12.6 13.0 13.7 13.6 13.5 13.6 12.5 13.0 12.7 9.9 9.4 6.7 4.7 3.5 4.3 6.5 6.7 6.7 6.8 7.1 8.0 8.9 8.5 8.1 8.3 12.0
13.3 12.1 11.2 9.8 8.1 7.6 7.9 8.8 6.7 6.3 7.0 7.7 9.4 10.8 12.1 12.3 12.8 12.4 12.8 13.7 13.7 13.3 12.9 13.1 13.5 13.2 12.1 10.4 8.1 7.2 8.2 6.5 6.9 7.9 10.7 9.7 10.5 10.6 10.6 11.2 11.1 11.2 12.0
14.5 13.7 13.0 12.2 11.8 11.7 11.3 10.9 10.7 9.3 10.1 11.2 11.8 12.4 12.6 13.5 13.8 13.3 13.3 13.0 12.3 11.8 13.3 13.0 12.8 13.4 12.9 8.8 5.1 6.5 8.4 8.3 7.3 10.8 13.6 14.2 14.1 14.3 13.8 13.2 12.7 12.3 12.4
15.4 14.5 14.3 13.3 12.9 12.7 12.8 12.6 12.1 12.3 12.2 12.3 12.6 13.4 14.2 13.9 13.9 13.6 13.1 7.9 7.2 6.5 7.0 8.3 11.2 10.3 5.9 5.3 5.6 7.0 8.4 7.2 9.9 15.0 15.7 15.5 15.3 15.4 15.2 14.9 14.3 13.4 13.0